Other Surface Observations
Issued by NWS Charleston, SC

Home | Current Version | Previous Version | Text Only | Print | Product List | Glossary On
Versions: 1 2 3 4 5 6 7 8 9 10 11 12 13 14 15 16 17 18 19 20 21 22 23 24 25 26 27 28 29 30 31 32 33 34 35 36 37 38 39 40 41 42 43 44 45 46 47 48 49 50
000
SXUS52 KCHS 250225
OSOCHS

MARINE OBSERVATIONS
NATIONAL WEATHER SERVICE CHARLESTON SC
1000 PM EDT THU JUL 24 2014

...DOWNTOWN CHARLESTON AND HARBOR...

CITY           SKY/WX    TMP DP  RH WIND       PRES   REMARKS
WATERFRONT PRK   N/A     84 N/A N/A SW10G16     N/A
FORT JOHNSON   NOT AVBL

...LAKE MOULTRIE...

CITY           SKY/WX    TMP DP  RH WIND       PRES   REMARKS
PINOPOLIS        N/A     88  73  62 S5        29.83R HX  96

...LAKE AND SUPPLEMENTAL COASTAL OBSERVATIONS...

STATION/POSITION TIME  TEMP    WIND        PRES    WAVE   SWELL
                       AIR SEA DIR/SP/G            HT/PER HT/PER/DIR
                 (UTC) (F)     (DEG/KT/KT) (MB)    (FT/S) (FT/S/D)
FORT PULASKI     0200   84     200/ 12/ 16 1014.6R
SAPELO ISLAND    0200   85     200/ 11     1015.0S
UPR LAKE MARION  NOT AVBL
WINYAH BAY       0200   84     210/ 10     1012.0S
LAKE MURRAY      0200   82     300/  3/  3 1012.2S
ACE BASIN NERRS  0200   84        CALM     1013.0S


...C-MAN AND BUOY OBSERVATIONS...

STATION/POSITION TIME  TEMP    WIND        PRES    WAVE   SWELL
                       AIR SEA DIR/SP/G            HT/PER HT/PER/DIR
                 (UTC) (F)     (DEG/KT/KT) (MB)    (FT/S) (FT/S/D)
BUOY 41004       0200   83 83  210/ 17/ 21 1012.8R   4/ 5   2/ 7
BUOY 41008       0200   84 85  190/ 17/ 21 1014.4R   3/ 4   2/110/ 8
FOLLY BEACH CMAN 0200   84     220/ 18/ 20 1013.9R
CAPERS NS BUOY   0100   84     230/ 19/ 21   N/A
FRIPP NS BUOY    NOT AVBL
5E ST. MARYS GA  0200      85                N/A     3/ 4
FRYING PAN BUOY  NOT AVBL
BUOY 41025       0200          VRB 19/ 23  1011.7R   4/ 5   2/ 30/ 9
CAPE LOOKOUT NC  0200   77     190/ 11/ 12 1012.1R
BUOY 41002       0146   82 82  230/ 19/ 23 1016.5    5/ 6   2/220/ 8
BUOY 41010       0200   83 84  190/ 12/ 14 1017.1F   3/ 8   2/130/ 8
BUOY 41012       NOT AVBL
ST AUGUSTINE FL  0200   82     210/  8/  9 1016.4R


$$



USA.gov is the U.S. government's official web portal to all federal, state and local government web resources and services.